[[{"header":{"parameterUnit":"m.s-1","parameterCategory":1,"la1":30.2991,"la2":30.254,"lo1":-89.0895,"lo2":-89.0444,"dy":0.0017,"dx":0.0017,"nx":28,"ny":28,"refTime":"2024-03-12T03:00:00:Z","depth":0,"parameterNumber":2,"parameterNumberName":"U-component_of_WINDS"},"data":[0,0,0,0,0,0,0,0,0,0,0,0,0,0,0,0,0,0,0,0,0,0,0,0,0,0,0,0,0,0,0,0,0,0,0,0,0,0,0,0,0,0,0,0,0,0,0,0,0,0,0,0,0,0,0,0,0,0,0.7981,0.798,0,0.7956,0.7956,0.7956,0.7952,0.7952,0.7953,0.7953,0.7926,0.7925,0.7924,0,0,0,0,0,0,0,0,0,0,0,0,0,0.8022,0.8021,0.7981,0.798,0.798,0.7956,0.7956,0.7956,0.7952,0.7952,0.7953,0.7953,0.7926,0.7925,0.7924,0,0,0,0,0,0,0,0,0,0,0,0,0,0.8001,0.8021,0.7981,0.7975,0.7975,0.7956,0.7956,0.7956,0.7952,0.7952,0.7953,0.7953,0.7926,0.7925,0.7924,0.7908,0,0,0.7919,0.7919,0,0,0,0,0,0,0,0,0.8002,0.8,0.7977,0.7976,0.7975,0.7958,0.796,0.7939,0.7952,0.7961,0.7953,0.7953,0.7936,0.7934,0.7928,0.7907,0.7906,0.7919,0.7918,0.7918,0.7917,0,0,0,0,0,0,0,0.8004,0.8001,0.7971,0.7976,0.7975,0.7974,0.7971,0.7956,0.7946,0.796,0.796,0.7957,0.7935,0.793,0.7928,0.7905,0.7919,0.7918,0.7917,0.7916,0.7868,0.7868,0,0,0,0,0,0,0.8007,0.8002,0.7972,0.797,0.799,0.7973,0.797,0.7963,0.7947,0.7945,0.7957,0.7957,0.7932,0.7929,0.7927,0.7906,0.7918,0.7916,0.7916,0.7869,0.7868,0.7868,0,0,0,0,0,0,0.8008,0.8004,0.7973,0.7986,0.7982,0.7971,0.7964,0.7962,0.7956,0.7944,0.7942,0.7953,0.7932,0.7929,0.7913,0.7905,0.7916,0.7914,0.7869,0.7869,0.7868,0.7866,0,0,0,0,0,0,0.8009,0.8004,0.7999,0.7986,0.7981,0.796,0.7963,0.7961,0.7954,0.7954,0.794,0.7938,0.7932,0.7915,0.7911,0.7904,0.7913,0.787,0.7869,0.7868,0.7867,0.7866,0.7865,0,0,0,0,0,0.801,0.7999,0.7999,0.7995,0.7974,0.7959,0.7957,0.7951,0.7954,0.7948,0.794,0.7938,0.7907,0.7913,0.7909,0.7901,0.787,0.7869,0.7868,0.7868,0.7866,0.7865,0,0,0,0,0,0,0.8011,0.7997,0.7997,0.7981,0.7972,0.7959,0.7951,0.7949,0.7938,0.7939,0.7931,0.7928,0.7912,0.7905,0.7912,0.7885,0.7889,0.7887,0.789,0.7888,0.7887,0.7888,0.7912,0,0,0,0,0,0.8009,0.7999,0.7988,0.7975,0.797,0.7962,0.7955,0.7951,0.794,0.7936,0.7927,0.7916,0.7904,0.7896,0.7884,0.7866,0.7863,0.7859,0.7858,0.7857,0.7855,0.7844,0.7842,0.7865,0.7865,0.7865,0,0,0.8006,0.7997,0.7991,0.7975,0.7967,0.7956,0.7958,0.7946,0.7937,0.7934,0.7918,0.7911,0.7898,0.7881,0.7874,0.7875,0.7848,0.7856,0.7855,0.7854,0.7843,0.7841,0.7839,0.7864,0.7864,0.7864,0,0,0.7993,0.7986,0.7975,0.7967,0.7955,0.7949,0.7946,0.7934,0.7929,0.7913,0.7911,0.79,0.7879,0.7869,0.7862,0.7846,0.7843,0.7842,0.7836,0.7825,0.7823,0.7822,0.7815,0.7812,0.784,0.784,0.784,0,0.799,0.7974,0.7969,0.7957,0.7949,0.7947,0.7934,0.7926,0.7911,0.7905,0.7908,0.7881,0.7872,0.7853,0.7849,0.7843,0.7839,0.7843,0.7824,0.7822,0.7821,0.7814,0.7812,0.784,0.784,0.784,0.784,0,0.797,0.7958,0.795,0.7936,0.7928,0.7915,0.7908,0.79,0.7897,0.7891,0.7874,0.7863,0.7849,0.7844,0.7841,0.7824,0.7825,0.7826,0.783,0.7819,0.7812,0.7809,0.784,0.784,0.784,0.784,0,0,0.7956,0.794,0.7937,0.793,0.7916,0.7907,0.7894,0.7881,0.7873,0.7863,0.7851,0.7834,0.7834,0.7826,0.7822,0.7813,0.7799,0.7814,0.7814,0.7811,0.7778,0.7776,0.7773,0.7798,0.7797,0.7797,0.7778,0,0.7942,0.792,0.7915,0.7895,0.7884,0.7881,0.787,0.786,0.7854,0.7843,0.7835,0.7823,0.7825,0.782,0.7811,0.7803,0.7792,0.7804,0.7786,0.7785,0.7788,0.777,0.7768,0.7751,0.7776,0.7775,0.7775,0,0.7921,0.7911,0.789,0.7878,0.7873,0.7863,0.785,0.7839,0.7828,0.7824,0.7814,0.7811,0.7796,0.7802,0.7781,0.7789,0.7782,0.7776,0.7776,0.7773,0.7779,0.7765,0.7746,0.7743,0.7771,0.7772,0.7772,0,0.7912,0.7893,0.7878,0.7872,0.7858,0.785,0.7844,0.7833,0.7825,0.7813,0.7807,0.7794,0.7786,0.7775,0.7768,0.7773,0.7747,0.7752,0.7742,0.7742,0.7736,0.7736,0.7714,0.7733,0.7733,0.7733,0.7734,0,0.7895,0.7883,0.7874,0.7864,0.785,0.7844,0.7829,0.7823,0.7812,0.7801,0.7798,0.7787,0.7779,0.7766,0.7761,0.7744,0.7741,0.7736,0.7734,0.7736,0.7736,0.7729,0.773,0.7733,0.7733,0.7733,0.7733,0,0.7882,0.7876,0.7859,0.7847,0.7843,0.7833,0.7822,0.7812,0.7806,0.7792,0.7788,0.7778,0.7763,0.7755,0.7737,0.7733,0.7713,0.7713,0.7717,0.7716,0.7706,0.7707,0.7678,0.7673,0.7697,0.7697,0.7697,0,0.7872,0.7862,0.7849,0.7841,0.7834,0.7822,0.7814,0.7808,0.7799,0.7785,0.7776,0.7762,0.775,0.7726,0.7716,0.7702,0.77,0.7691,0.7698,0.7699,0.7699,0.7699,0.7697,0.769,0.7689,0.7689,0.7689,0,0.7853,0.785,0.7839,0.7826,0.7816,0.7806,0.7795,0.7789,0.7781,0.7771,0.7756,0.7747,0.7728,0.7713,0.7698,0.769,0.7687,0.7687,0.7684,0.7684,0.7687,0.7684,0.7713,0.7688,0.7688,0.7688,0.7688,0.7688,0.784,0.783,0.7819,0.7806,0.7798,0.7788,0.7778,0.7771,0.7759,0.7743,0.774,0.7724,0.7712,0.7691,0.7683,0.767,0.7672,0.7667,0.7666,0.7664,0.7663,0.769,0.7667,0.7667,0.7667,0.7667,0.7667,0,0.7819,0.7812,0.7801,0.7786,0.7776,0.7776,0.7764,0.7755,0.7741,0.773,0.7718,0.7701,0.7686,0.7675,0.766,0.7651,0.765,0.7647,0.7647,0.7645,0.7663,0.7667,0.7649,0.7649,0.7649,0.7649,0.7649,0.7649,0.7808,0.7792,0.7787,0.7767,0.776,0.7744,0.7738,0.7728,0.7719,0.77,0.7688,0.7682,0.767,0.7654,0.764,0.7637,0.7631,0.7629,0.7625,0.7642,0.7644,0.7646,0.7649,0.7628,0.7628,0.7608,0.7608,0.7608]},{"header":{"parameterUnit":"m.s-1","parameterCategory":1,"la1":30.2991,"la2":30.254,"lo1":-89.0895,"lo2":-89.0444,"dy":0.0017,"dx":0.0017,"nx":28,"ny":28,"refTime":"2024-03-12T03:00:00:Z","depth":0,"parameterNumber":3,"parameterNumberName":"V-component_of_WINDS"},"data":[0,0,0,0,0,0,0,0,0,0,0,0,0,0,0,0,0,0,0,0,0,0,0,0,0,0,0,0,0,0,0,0,0,0,0,0,0,0,0,0,0,0,0,0,0,0,0,0,0,0,0,0,0,0,0,0,0,0,0.5173,0.5173,0,0.5148,0.5148,0.5147,0.51,0.5099,0.5098,0.5097,0.5072,0.5072,0.5072,0,0,0,0,0,0,0,0,0,0,0,0,0,0.5179,0.5179,0.5173,0.5173,0.5172,0.5148,0.5148,0.5147,0.51,0.5099,0.5098,0.5097,0.5072,0.5072,0.5072,0,0,0,0,0,0,0,0,0,0,0,0,0,0.5167,0.5179,0.5173,0.5146,0.5143,0.5148,0.5148,0.5147,0.5101,0.5099,0.5098,0.5096,0.5072,0.5072,0.5072,0.5102,0,0,0.5073,0.5073,0,0,0,0,0,0,0,0,0.5168,0.5167,0.515,0.5148,0.5145,0.5126,0.514,0.5132,0.5101,0.5117,0.5097,0.5096,0.5091,0.5089,0.5088,0.51,0.5099,0.5073,0.5073,0.5073,0.5073,0,0,0,0,0,0,0,0.5169,0.5168,0.5163,0.515,0.5147,0.5135,0.5131,0.5138,0.5112,0.5115,0.5112,0.5109,0.5089,0.5088,0.5087,0.5099,0.5073,0.5073,0.5073,0.5074,0.5132,0.5133,0,0,0,0,0,0,0.5174,0.5169,0.5164,0.5162,0.5153,0.5136,0.5132,0.5133,0.5112,0.5107,0.5111,0.5107,0.5088,0.5087,0.5086,0.5117,0.5073,0.5074,0.5074,0.5131,0.5132,0.5134,0,0,0,0,0,0,0.5174,0.5174,0.5165,0.5165,0.5163,0.5137,0.5139,0.5134,0.5132,0.5108,0.5103,0.5114,0.5087,0.5085,0.5097,0.5116,0.5074,0.5074,0.5129,0.5131,0.5133,0.5182,0,0,0,0,0,0,0.5174,0.5174,0.5185,0.5165,0.5163,0.5178,0.514,0.5134,0.5133,0.5128,0.511,0.5106,0.5086,0.5097,0.5098,0.5115,0.5074,0.5127,0.513,0.5132,0.5178,0.5185,0.5191,0,0,0,0,0,0.5175,0.52,0.5186,0.5186,0.5176,0.5179,0.5177,0.5154,0.5134,0.5145,0.5129,0.5106,0.5114,0.5099,0.5099,0.5117,0.5126,0.5129,0.5132,0.5175,0.5184,0.5191,0,0,0,0,0,0,0.5224,0.5197,0.5181,0.5201,0.5193,0.5171,0.5184,0.5163,0.516,0.5156,0.5126,0.5123,0.5138,0.5129,0.5113,0.5143,0.5116,0.5119,0.5149,0.5157,0.5163,0.5165,0.5074,0,0,0,0,0,0.5237,0.5241,0.5218,0.5238,0.5234,0.521,0.521,0.5192,0.5182,0.5178,0.5164,0.5154,0.5154,0.5155,0.5154,0.5177,0.5171,0.5189,0.5195,0.5201,0.5204,0.5213,0.5221,0.5144,0.5144,0.5144,0,0,0.5264,0.525,0.5255,0.5247,0.5238,0.5243,0.5207,0.5214,0.5217,0.5179,0.5189,0.5178,0.5166,0.5183,0.519,0.5176,0.5224,0.5205,0.5209,0.5209,0.5217,0.5225,0.5231,0.5146,0.5146,0.5146,0,0,0.5316,0.5307,0.5321,0.5313,0.53,0.5283,0.5287,0.5267,0.5258,0.5268,0.524,0.5242,0.5244,0.5235,0.5231,0.5278,0.5257,0.5279,0.5312,0.5322,0.5328,0.5333,0.5349,0.5355,0.5282,0.5282,0.5282,0,0.5352,0.5358,0.5332,0.534,0.5336,0.5302,0.5316,0.5309,0.5297,0.5295,0.5279,0.5279,0.5268,0.5282,0.5293,0.5292,0.5294,0.5281,0.5329,0.5334,0.5338,0.5353,0.5359,0.5285,0.5285,0.5284,0.5284,0,0.5401,0.5406,0.5419,0.5407,0.5406,0.5417,0.5392,0.5393,0.5375,0.536,0.537,0.5355,0.535,0.5352,0.5335,0.5363,0.5355,0.5335,0.5306,0.5349,0.5362,0.5367,0.5289,0.5288,0.5287,0.5286,0,0,0.5484,0.5456,0.5462,0.5455,0.5437,0.544,0.5449,0.5444,0.5445,0.5437,0.5443,0.5444,0.5425,0.542,0.5402,0.541,0.5447,0.5389,0.5388,0.5399,0.5475,0.549,0.5497,0.5432,0.5433,0.5434,0.5476,0,0.5531,0.5546,0.5522,0.5541,0.5544,0.5511,0.5518,0.5508,0.5494,0.5494,0.5478,0.5478,0.5454,0.545,0.5458,0.5441,0.5462,0.5438,0.5437,0.5437,0.5441,0.5504,0.552,0.5561,0.5481,0.5482,0.5483,0,0.5589,0.5583,0.5603,0.5582,0.5582,0.559,0.5582,0.5583,0.557,0.5558,0.5553,0.5531,0.5537,0.551,0.5518,0.5502,0.55,0.5492,0.5493,0.5492,0.5462,0.5504,0.5573,0.5579,0.5491,0.549,0.549,0,0.5646,0.5643,0.5654,0.5649,0.5626,0.5632,0.5622,0.5608,0.5606,0.5599,0.5596,0.5591,0.5587,0.5583,0.5559,0.5542,0.5569,0.5541,0.5559,0.556,0.5566,0.5566,0.5636,0.5567,0.5567,0.5566,0.5566,0,0.5701,0.5714,0.5679,0.5686,0.5699,0.5671,0.5684,0.5671,0.5659,0.5662,0.5633,0.5636,0.5605,0.5604,0.5586,0.5594,0.5593,0.5584,0.5579,0.5586,0.5587,0.5584,0.5581,0.5568,0.5568,0.5567,0.5567,0,0.5767,0.5744,0.5754,0.573,0.5725,0.5735,0.5715,0.572,0.5703,0.5707,0.5707,0.5681,0.5678,0.5654,0.5647,0.5635,0.565,0.564,0.5655,0.5651,0.5671,0.5669,0.574,0.5747,0.5675,0.5675,0.5676,0,0.5803,0.5812,0.579,0.579,0.5781,0.5782,0.5779,0.5751,0.5749,0.5734,0.574,0.5736,0.5731,0.5729,0.5709,0.5703,0.5692,0.5717,0.5691,0.5697,0.5691,0.569,0.569,0.5723,0.5724,0.5724,0.5725,0,0.587,0.5858,0.5855,0.5848,0.5845,0.5838,0.5829,0.5831,0.58,0.5799,0.5796,0.5792,0.5784,0.578,0.577,0.5759,0.5737,0.5733,0.5737,0.5745,0.5752,0.5747,0.5669,0.5732,0.5731,0.5731,0.573,0.573,0.5921,0.5927,0.5912,0.5909,0.5899,0.5891,0.5894,0.5878,0.5875,0.5866,0.585,0.5849,0.5834,0.5819,0.581,0.5809,0.5795,0.5801,0.5802,0.5804,0.5808,0.5753,0.5807,0.5807,0.5806,0.5806,0.5806,0,0.5986,0.5974,0.5971,0.5959,0.5957,0.5936,0.5925,0.5924,0.5924,0.5912,0.5907,0.5903,0.5898,0.5877,0.587,0.5873,0.5862,0.5872,0.5871,0.5868,0.5821,0.5818,0.588,0.588,0.588,0.588,0.588,0.588,0.6019,0.6027,0.6013,0.6016,0.6003,0.6003,0.5998,0.599,0.598,0.5977,0.5972,0.5959,0.5943,0.5934,0.5928,0.5922,0.592,0.5933,0.5923,0.5879,0.5872,0.5865,0.5862,0.5933,0.5933,0.5971,0.5971,0.5972]}]]